Regional Weather Roundup
Issued by NWS Portland, ME

Current Version | Previous Version | Text Only | Print | Product List | Glossary Off
Versions: 1 2 3 4 5 6 7 8 9 10 11 12 13 14 15 16 17 18 19 20 21 22 23 24 25 26 27 28 29 30 31 32 33 34 35 36 37 38 39 40 41 42 43 44 45 46 47 48 49 50
000 ASUS41 KGYX 210705 RWRGYX WEATHER ROUNDUP FOR MAINE AND NEW HAMPSHIRE NATIONAL WEATHER SERVICE GRAY ME 200 AM EST MON JAN 21 2019 MEZ002-005-006-010-012-015-018-020-021-024-026-027-029-210800- MAINE CITY SKY/WX TMP DP RH WIND PRES REMARKS PORTLAND CLOUDY 10 -4 53 NW20G31 29.47R WCI -9 SANFORD CLOUDY 3 -7 63 W14G22 29.49R WCI -15 BAR HARBOR FLURRIES 13 8 81 NW13G21 29.32R WCI -2 WISCASSET CLOUDY 9 -3 58 VRB3 29.43R ROCKLAND FLURRIES 12 3 67 NW13G20 29.36R WCI -3 FRYEBURG CLOUDY 4 -8 57 CALM 29.45R LEWISTONAUBURN CLOUDY 5 -6 60 NW20G26 29.44R WCI -15 AUGUSTA CLOUDY 7 -3 64 W10 29.40R WCI -8 WATERVILLE CLOUDY 11 1 64 MISG 29.37R BANGOR CLOUDY 13 4 67 NW10 29.34R WCI 0 GREENVILLE N/A 5 -3 69 NW23G33 29.28R WCI -17 MILLINOCKET CLOUDY 13 2 61 N14G22 29.35R WCI -2 HOULTON LGT SNOW 10 6 84 N16G28 29.28R VSB 1 WCI -7 PRESQUE ISLE LGT SNOW 10 5 80 N18 29.33R WCI -8 FRENCHVILLE LGT SNOW 10 4 76 N18G26 29.30F WCI -8 CARIBOU LGT SNOW 10 4 76 N15G22 29.30F WCI -7 $$ NHZ002-005-008-009-011-012-014-210800- NEW HAMPSHIRE CITY SKY/WX TMP DP RH WIND PRES REMARKS PORTSMOUTH CLOUDY 4 -9 55 W17 29.50R WCI -16 ROCHESTER CLOUDY 2 -9 60 NW12 29.49R WCI -15 NASHUA FAIR 3 -8 60 NW20G31 29.58R WCI -18 MANCHESTER FAIR 3 -11 52 NW16G31 29.55R WCI -16 CONCORD FAIR 0 -11 59 NW18G28 29.55R WCI -21 LACONIA FAIR -2 -11 65 W13G18 29.51R WCI -20 PLYMOUTH FAIR -3 -13 63 W16G24 29.57R WCI -24 BERLIN CLOUDY -6 -13 71 NW6 29.54R WHITEFIELD LGT SNOW -6 -12 75 CALM 29.60R JAFFREY FAIR 0 -11 59 W10G22 29.53R WCI -16 KEENE FAIR 1 -10 60 VRB7 29.64 LEBANON CLOUDY -1 -13 56 N12G20 29.63R WCI -18 MT WASHINGTON PTCLDY -9 -13 84 NW20 N/A WCI -34 $$ VTZ005-007-008-210800- VERMONT CITY SKY/WX TMP DP RH WIND PRES REMARKS ST JOHNSBURY N/A -4 -11 72 MISG 29.65R MONTPELIER CLOUDY -6 -11 79 NW13 29.66R WCI -25 BURLINGTON LGT SNOW -2 -9 72 NW15 29.80R WCI -22 $$ MAZ007-012-024-CTZ003-RIZ002-NYZ038-NYZ072-210800- SOUTHERN NEW ENGLAND AND NY CITY SKY/WX TMP DP RH WIND PRES REMARKS BOSTON FAIR 8 -7 50 W24G33 29.56R WCI -13 WORCESTER FAIR -1 -11 62 W20G28 29.52R WCI -23 NANTUCKET CLOUDY 14 6 70 NW22G33 29.55R WCI -4 PROVIDENCE FAIR 6 -4 63 NW16G30 29.64R WCI -12 HARTFORD FAIR 1 -11 57 NW22G29 29.74R WCI -21 ALBANY FAIR -3 -14 59 NW17G25 29.84R WCI -24 NEW YORK CITY MOCLDY 13 1 59 NW26G39 29.84R WCI -7 $$ ANZ081-ANZ082-ANZ150-NHZ014-MEZ023>029-210800- COASTAL MARINE OBSERVATIONS STATION/POSITION TIME TEMP WIND PRES WAVE AIR SEA DIR/SP/G HT/PER (UTC) (F) (DEG/KT/KT) (MB) (FT/S) MOUNT DESERT ROC 0600 18 300/ 26/ 30 990.4R MATINICUS ROCK 0600 15 300/ 28/ 32 992.2R ISLE OF SHOALS 0600 6 300/ 27/ 31 997.1R JEFFREYS LEDGE 0638 41 N/A 10/11 CASHES LEDGE BUO 0650 18 40 994.5R 12/12 $$ .............KEY.............. WCI - WIND CHILL TC - TEMPERATURE IN CELSIUS VSB - VISIBILITY IN MILES HX - HEAT INDEX FAIR- INDICATES FEW OR NO CLOUDS BELOW 12,000 FT, WITH NO SIGNIFICANT WEATHER AND/OR OBSTRUCTIONS TO VISIBILITY.

USA.gov is the U.S. government's official web portal to all federal, state and local government web resources and services.